This demonstration page uses our WeatherBlox Daily Observations layout. Learn more.

Left ArrowRight Arrow

39.51506, -84.39828

Hourly Observations for May 9, 2021

Temp ( °F °C ) Dew Point ( °F °C ) Humidity (%) Winds ( mph kmh ) Pressure ( in mb ) Visibility ( mi km ) Precip ( " mm )
12:15 am 00:15 Cloudy 52 11.1 40 4.3 63 63 NE 8 13 30.06 1018 10 16.0934 N/A
12:35 am 00:35 Cloudy 51 10.3 41 5 70 70 NE 9 15 30.07 1018 10 16.0934 N/A
12:55 am 00:55 Cloudy 50 10 42 5.5 74 74 NE 12 19 30.07 1018 10 16.0934 N/A
1:15 am 01:15 Cloudy 49 9.6 43 5.9 78 78 NE 12 19 30.08 1019 10 16.0934 N/A
1:35 am 01:35 Cloudy with Light Rain 49 9.3 43 6.3 82 82 ENE 10 17 30.08 1019 10 16.0934 N/A
1:55 am 01:55 Cloudy with Light Rain 48 9 45 7 87 87 E 9 15 30.07 1018 10 16.0934 N/A
2:15 am 02:15 Cloudy 48 8.9 45 7 88 88 ENE 7 11 30.07 1018 10 16.0934 N/A
2:35 am 02:35 Cloudy with Rain 48 9 44 6.8 86 86 E 6 9 30.06 1018 10 16.0934 N/A
2:55 am 02:55 Cloudy with Light Rain 48 8.7 44 6.7 87 87 E 7 11 30.04 1017 10 16.0934 N/A
3:15 am 03:15 Cloudy 48 8.7 44 6.9 89 89 ENE 9 15 30.04 1017 10 16.0934 N/A
3:35 am 03:35 Cloudy 48 8.7 44 6.9 89 89 E 9 15 30.03 1017 10 16.0934 N/A
3:55 am 03:55 Cloudy with Light Rain 47 8.4 45 7.3 93 93 E 8 13 30.01 1016 10 16.0934 N/A
4:15 am 04:15 Cloudy with Drizzle 47 8.4 46 7.5 94 94 E 8 13 30.01 1016 10 16.0934 N/A
4:35 am 04:35 Cloudy with Drizzle 47 8.3 46 7.6 95 95 E 10 17 29.98 1015 10 16.0934 N/A
4:55 am 04:55 Cloudy 47 8.3 45 7.3 93 93 ESE 15 24 29.96 1015 10 16.0934 N/A
5:15 am 05:15 Cloudy with Light Rain 47 8.4 44 6.9 90 90 ESE 14 22 29.94 1014 10 16.0934 N/A
5:35 am 05:35 Cloudy with Rain 47 8.1 44 6.9 92 92 ESE 12 19 29.92 1013 7 11.26538 0.02 0.508
5:55 am 05:55 Cloudy 47 8.1 44 6.9 92 92 E 12 19 29.9 1013 10 16.0934 0.03 0.762
6:15 am 06:15 Cloudy 47 8.1 45 7 93 93 E 10 17 29.89 1012 10 16.0934 N/A
6:35 am 06:35 Cloudy 47 8.1 44 6.7 91 91 E 10 17 29.9 1013 10 16.0934 N/A
6:55 am 06:55 Cloudy with Nearby Thunderstorms 47 8.1 44 6.8 92 92 E 10 17 29.9 1013 10 16.0934 N/A
7:15 am 07:15 Cloudy 47 8.1 44 6.8 92 92 E 12 19 29.88 1012 10 16.0934 N/A
7:35 am 07:35 Cloudy 47 8.2 44 6.6 90 90 E 7 11 29.88 1012 10 16.0934 N/A
7:55 am 07:55 Cloudy 47 8.4 43 6.3 87 87 E 7 11 29.87 1012 10 16.0934 N/A
8:15 am 08:15 Cloudy with Nearby Thunderstorms 47 8.5 43 6.1 85 85 E 12 19 29.84 1011 10 16.0934 N/A
8:35 am 08:35 Cloudy 47 8.5 43 6.2 86 86 ENE 10 17 29.84 1011 10 16.0934 N/A
8:55 am 08:55 Cloudy 47 8.6 43 6.2 85 85 E 13 20 29.82 1010 10 16.0934 N/A
9:15 am 09:15 Cloudy 47 8.6 43 6.2 85 85 E 16 26 29.79 1009 10 16.0934 N/A
9:35 am 09:35 Cloudy 47 8.4 43 6.1 86 86 E 16 26 29.77 1008 10 16.0934 N/A
9:55 am 09:55 Cloudy with Thunderstorms 47 8.2 44 6.4 89 89 E 13 20 29.8 1009 10 16.0934 N/A
10:15 am 10:15 Cloudy with Heavy Thunderstorms 46 7.6 44 6.9 95 95 E 10 17 29.77 1008 3 4.82802 0.11 2.794
10:35 am 10:35 Cloudy with Thunderstorms 45 7.4 45 7.1 98 98 E 14 22 29.78 1008 2.5 4.02335 0.23 5.842
10:55 am 10:55 Cloudy with Heavy Rain 45 7.3 45 7.2 99 99 E 12 19 29.76 1008 2 3.21868 0.36 9.144
11:15 am 11:15 Cloudy with Light Thunderstorms 45 7 45 7 100 100 E 9 15 29.75 1007 3.5 5.63269 0.07 1.778
11:35 am 11:35 Cloudy with Light Rain 46 8 N/A N/A E 5 7 29.73 1007 2.5 4.02335 0.1 2.54
11:55 am 11:55 Cloudy with Rain 46 8 N/A N/A E 7 11 29.71 1006 3 4.82802 0.15 3.81
12:15 pm 12:15 Cloudy with Rain 46 8 N/A N/A SE 6 9 29.69 1006 3.5 5.63269 0.05 1.27
12:35 pm 12:35 Cloudy with Light Rain 48 9 N/A N/A SE 6 9 29.65 1004 10 16.0934 0.06 1.524
12:55 pm 12:55 Cloudy with Rain 48 9 N/A N/A SSE 7 11 29.63 1003 7 11.26538 0.08 2.032
1:15 pm 13:15 Cloudy 50 10 N/A N/A N N/A 29.65 1004 10 16.0934 N/A
1:35 pm 13:35 Cloudy 51 10.5 51 10.4 99 99 SSW 5 7 29.65 1004 10 16.0934 N/A
1:55 pm 13:55 Cloudy 52 11 N/A N/A SSW 6 9 29.64 1004 10 16.0934 N/A
2:15 pm 14:15 Cloudy with Haze 54 12 N/A N/A SW 3 6 29.62 1003 5 8.0467 N/A
2:35 pm 14:35 Cloudy with Haze 55 13 N/A N/A SW 6 9 29.61 1003 7 11.26538 N/A
2:55 pm 14:55 Cloudy 57 14 N/A N/A SW 6 9 29.6 1002 10 16.0934 N/A
3:15 pm 15:15 Cloudy with Rain 59 15 N/A N/A SW 8 13 29.58 1002 7 11.26538 0.01 0.254
3:35 pm 15:35 Cloudy with Heavy Rain 57 13.9 56 13.6 98 98 NNW 16 26 29.63 1003 2 3.21868 0.18 4.572
3:55 pm 15:55 Cloudy with Light Rain 52 11.3 52 11 98 98 N 8 13 29.67 1005 10 16.0934 0.22 5.588
4:35 pm 16:35 Cloudy with Light Rain 49 9.5 48 9.1 97 97 N 12 19 29.71 1006 10 16.0934 0.01 0.254
4:55 pm 16:55 Cloudy with Light Rain 48 8.8 47 8.5 98 98 N 10 17 29.73 1007 10 16.0934 0.01 0.254
5:35 pm 17:35 Cloudy 47 8.1 46 7.7 97 97 N 9 15 29.77 1008 10 16.0934 N/A
5:55 pm 17:55 Cloudy 46 7.9 45 7 94 94 NNE 14 22 29.79 1009 10 16.0934 N/A
6:15 pm 18:15 Cloudy 45 7 43 6 93 93 NNE 14 22 29.83 1010 10 16.0934 N/A
6:35 pm 18:35 Cloudy 44 6.7 42 5.6 93 93 NNE 16 26 29.85 1011 10 16.0934 N/A
6:55 pm 18:55 Cloudy 44 6.6 41 5.1 90 90 NNE 13 20 29.89 1012 10 16.0934 N/A
7:15 pm 19:15 Cloudy 44 6.7 41 5.1 90 90 NNE 10 17 29.9 1012 10 16.0934 N/A
7:35 pm 19:35 Cloudy 44 6.8 42 5.4 91 91 NNE 9 15 29.91 1013 10 16.0934 N/A
7:55 pm 19:55 Cloudy 44 6.9 42 5.3 90 90 NE 10 17 29.92 1013 10 16.0934 N/A
8:15 pm 20:15 Cloudy 44 6.8 41 5 88 88 NNE 13 20 29.92 1013 10 16.0934 N/A
8:35 pm 20:35 Cloudy 44 6.8 41 5.2 90 90 NNE 10 17 29.97 1015 10 16.0934 N/A
8:55 pm 20:55 Cloudy 44 6.7 41 4.9 88 88 NNE 14 22 29.97 1015 10 16.0934 N/A
9:15 pm 21:15 Cloudy 44 6.7 40 4.5 86 86 NNE 13 20 29.99 1015 10 16.0934 N/A
9:35 pm 21:35 Cloudy 44 6.7 40 4.5 86 86 NNE 10 17 30 1016 10 16.0934 N/A
9:55 pm 21:55 Cloudy 44 6.6 40 4.2 85 85 NE 13 20 30.01 1016 10 16.0934 N/A
10:15 pm 22:15 Cloudy 44 6.6 39 3.8 83 83 NNE 13 20 30.03 1017 10 16.0934 N/A
10:35 pm 22:35 Cloudy 44 6.6 38 3.6 81 81 NE 12 19 30.04 1017 10 16.0934 N/A
10:55 pm 22:55 Cloudy 44 6.5 39 3.8 83 83 NE 14 22 30.04 1017 10 16.0934 N/A
11:15 pm 23:15 Cloudy 44 6.4 39 3.9 84 84 NE 9 15 30.03 1017 10 16.0934 N/A
11:35 pm 23:35 Mostly Cloudy 43 6.1 39 4 87 87 NNE 7 11 30.03 1017 10 16.0934 N/A
11:55 pm 23:55 Clear 42 5.5 39 3.9 90 90 NNE 6 9 30.03 1017 10 16.0934 N/A

Powered by AerisWeather